This demonstration page uses our WeatherBlox Daily Observations layout. Learn more.

Left ArrowRight Arrow

39.12711, -84.51439

Hourly Observations for September 20, 2018

Temp ( °F °C ) Dew Point ( °F °C ) Humidity (%) Winds ( mph kmh ) Pressure ( in mb ) Visibility ( mi km ) Precip ( " mm )
12:53 am 00:53 Clear with Mist and Fog 71 21.7 71 21.7 100 100 Calm 30.01 1016 3 5 0.00 0.00
1:19 am 01:19 Clear with Mist and Fog 71 21.7 71 21.7 100 100 Calm 30.00 1016 2 3 0.00 0.00
1:29 am 01:29 Mostly Clear with Mist and Fog 71 21.7 71 21.7 100 100 Calm 29.97 1015 2 3 0.00 0.00
1:44 am 01:44 Mostly Cloudy with Mist and Fog 71 21.7 71 21.7 100 100 Calm 29.97 1015 1 2 0.00 0.00
1:51 am 01:51 Mostly Cloudy with Mist and Fog 70 21 70 21 100 100 Calm 29.97 1015 1 1 0.00 0.00
1:53 am 01:53 Mostly Cloudy with Mist and Fog 71 21.7 71 21.7 100 100 Calm 30.00 1016 1 2 0.00 0.00
1:58 am 01:58 Clear with Mist and Fog 71 21.7 71 21.7 100 100 Calm 29.97 1015 1 1 0.00 0.00
2:18 am 02:18 Clear with Mist and Fog 70 21.1 70 21.1 100 100 Calm 29.97 1015 2 3 0.00 0.00
2:29 am 02:29 Clear with Mist and Fog 70 21.1 70 21.1 100 100 Calm 29.97 1015 3 5 0.00 0.00
2:42 am 02:42 Clear with Mist and Fog 70 21.1 70 21.1 100 100 Calm 29.97 1015 2 3 0.00 0.00
2:53 am 02:53 Clear with Mist and Fog 70 21.1 70 21.1 100 100 Calm 30.00 1016 3 5 0.00 0.00
3:07 am 03:07 Clear with Mist and Fog 70 21.1 70 21.1 100 100 Calm 30.00 1016 3 4 0.00 0.00
3:16 am 03:16 Clear with Mist and Fog 70 21.1 70 21.1 100 100 Calm 30.00 1016 3 5 0.00 0.00
3:31 am 03:31 Clear with Mist and Fog 69 20.6 69 20.6 100 100 Calm 30.00 1016 2 3 0.00 0.00
3:49 am 03:49 Clear with Mist and Fog 70 21 70 21 100 100 Calm 30.00 1016 3 4 0.00 0.00
3:53 am 03:53 Clear with Mist and Fog 69 20.6 69 20.6 100 100 Calm 30.02 1017 3 5 0.00 0.00
4:08 am 04:08 Clear with Mist and Fog 68 20 68 20 100 100 Calm 30.00 1016 2 3 0.00 0.00
4:29 am 04:29 Clear with Mist and Fog 69 20.6 69 20.6 100 100 Calm 30.00 1016 3 5 0.00 0.00
4:44 am 04:44 Mostly Clear with Mist and Fog 69 20.6 69 20.6 100 100 Calm 30.00 1016 3 4 0.00 0.00
4:53 am 04:53 Clear with Mist and Fog 69 20.6 69 20.6 100 100 Calm 30.03 1017 2 3 0.00 0.00
4:55 am 04:55 Mostly Clear with Mist and Fog 69 20.6 69 20.6 100 100 Calm 30.00 1016 2 2 0.00 0.00
4:59 am 04:59 Mostly Cloudy with Mist and Fog 68 20 68 20 100 100 Calm 30.00 1016 1 1 0.00 0.00
5:09 am 05:09 Mostly Cloudy with Mist and Fog 69 20.6 69 20.6 100 100 Calm 30.00 1016 1 2 0.00 0.00
5:19 am 05:19 Mostly Cloudy with Fog 69 20.6 69 20.6 100 100 Calm 30.03 1017 1 1 0.00 0.00
5:29 am 05:29 Mostly Cloudy with Fog 69 20.6 69 20.6 100 100 Calm 30.03 1017 0 0 0.00 0.00
5:44 am 05:44 Mostly Cloudy with Mist and Fog 68 20 68 20 100 100 Calm 30.03 1017 1 2 0.00 0.00
5:51 am 05:51 Cloudy with Mist and Fog 68 20 68 20 100 100 Calm 30.03 1017 3 5 0.00 0.00
5:53 am 05:53 Cloudy with Mist and Fog 68 20 68 20 100 100 Calm 30.03 1017 2 3 0.00 0.00
5:57 am 05:57 Cloudy with Mist and Fog 68 20 68 20 100 100 Calm 30.03 1017 1 1 0.00 0.00
6:09 am 06:09 Mostly Cloudy with Fog 68 20 68 20 100 100 Calm 30.03 1017 0 0 0.00 0.00
6:53 am 06:53 Mostly Cloudy with Fog 68 20 68 20 100 100 Calm 30.04 1017 1 1 0.00 0.00
7:18 am 07:18 Mostly Cloudy with Patchy Fog 69 20.6 69 20.6 100 100 Calm 30.03 1017 1 2 0.00 0.00
7:53 am 07:53 Mostly Cloudy with Patchy Fog 68 20 68 20 100 100 Calm 30.06 1018 2 3 0.00 0.00
8:33 am 08:33 Partly Cloudy with Patchy Fog 70 21.1 70 21.1 100 100 Calm 30.06 1018 3 5 0.00 0.00
8:53 am 08:53 Partly Cloudy with Patchy Fog 70 21.1 70 21.1 100 100 Calm 30.07 1018 3 5 0.00 0.00
9:53 am 09:53 Sunny 76 24.4 74 23.3 94 94 Calm 30.07 1018 10 16 0.00 0.00
10:53 am 10:53 Sunny 81 27.2 75 23.9 82 82 SSW 6 9 30.08 1019 10 16 0.00 0.00
11:53 am 11:53 Sunny 85 29.4 76 24.4 75 75 SSW 6 9 30.07 1018 10 16 0.00 0.00
12:53 pm 12:53 Mostly Sunny 88 31.1 75 23.9 66 66 SSW 12 19 30.06 1018 10 16 0.00 0.00
1:53 pm 13:53 Partly Cloudy 87 30.6 74 23.3 65 65 WSW 7 11 30.04 1017 10 16 0.00 0.00
2:53 pm 14:53 Partly Cloudy 90 32.2 75 23.9 62 62 SSW 12 19 30.02 1017 10 16 0.00 0.00
3:53 pm 15:53 Partly Cloudy 90 32.2 75 23.9 62 62 S 8 13 30.01 1016 10 16 0.00 0.00
4:53 pm 16:53 Partly Cloudy 89 31.7 73 22.8 59 59 SSW 12 19 30.00 1016 10 16 0.00 0.00
5:53 pm 17:53 Mostly Sunny 87 30.6 73 22.8 63 63 S 10 17 29.99 1016 10 16 0.00 0.00
6:53 pm 18:53 Sunny 85 29.4 75 23.9 72 72 S 5 7 29.99 1016 10 16 0.00 0.00
7:53 pm 19:53 Clear 79 26.1 75 23.9 88 88 S 3 6 30.00 1016 10 16 0.00 0.00
8:53 pm 20:53 Clear 77 25 75 23.9 94 94 Calm 30.00 1016 10 16 0.00 0.03
9:53 pm 21:53 Clear 75 23.9 75 23.9 100 100 SSW 3 6 30.00 1016 8 13 0.00 0.00
10:53 pm 22:53 Clear 74 23.3 74 23.3 100 100 WSW 5 7 30.00 1016 8 13 0.00 0.00
11:53 pm 23:53 Clear 75 23.9 73 22.8 94 94 WSW 3 6 30.00 1016 9 14 0.00 0.00

Powered by AerisWeather